Theta_e
310 310 307 307 309 309 310 310 309 310 312 313 313 313 313 314 315 316 316 317 315 315 316 316 319 319 319 319 319 318 312 313 316 316 316 315 314 316 317 317 317 318 317 319 324
311 310 310 308 308 309 309 310 309 310 311 312 312 313 313 314 315 315 316 313 311 316 315 315 317 317 319 318 317 313 311 314 313 313 312 314 315 317 316 316 316 316 317 324 320
312 311 311 310 309 308 308 308 310 310 311 311 312 313 314 313 315 319 314 310 315 314 315 315 316 317 318 317 316 312 313 312 315 314 316 315 315 316 314 314 316 316 316 317 317
311 312 312 311 311 310 308 309 309 310 310 311 311 312 313 312 317 315 310 313 314 315 315 314 314 314 312 314 314 316 315 315 315 315 315 313 316 315 316 316 318 317 316 316 316
306 308 311 312 311 311 310 309 309 310 310 311 311 312 312 312 317 318 312 314 314 315 315 314 314 313 311 311 312 313 313 314 316 316 315 316 315 314 315 316 317 316 316 316 316
303 304 307 310 312 311 311 309 309 310 310 310 311 311 311 311 314 313 313 314 314 314 315 315 315 314 313 312 311 313 313 313 314 314 314 314 314 315 317 316 316 316 316 316 316
303 303 304 307 311 313 312 310 310 310 310 310 311 311 310 312 316 313 312 313 314 314 314 315 315 315 314 312 313 313 314 312 312 313 313 314 313 312 316 315 316 316 316 316 316
303 303 304 305 309 313 312 310 314 311 310 310 310 310 310 313 316 314 313 314 314 314 315 315 315 314 313 313 312 311 309 312 312 310 312 313 310 311 315 315 315 315 316 316 317
303 303 304 304 307 314 315 315 312 314 312 310 310 311 310 312 316 316 314 314 314 314 314 315 315 313 312 309 308 307 310 311 311 309 311 311 311 311 314 315 315 314 315 317 317
303 303 304 305 306 313 315 315 315 316 316 311 311 310 311 313 316 317 316 314 314 315 315 315 314 309 305 305 307 309 311 310 312 313 310 311 309 309 312 313 315 314 315 316 317
303 303 305 305 307 314 315 315 315 314 314 314 314 314 314 315 315 317 316 314 314 314 311 312 310 310 310 309 310 312 312 313 312 311 314 311 310 310 312 313 312 313 314 316 317
303 303 305 306 308 315 315 316 315 315 314 315 315 315 315 314 315 314 314 314 313 311 311 309 310 310 311 312 312 312 313 311 310 312 314 313 312 311 312 312 315 314 314 316 317
302 303 306 306 310 311 315 315 315 315 312 314 314 315 315 315 314 315 314 313 312 311 310 310 313 313 313 313 314 312 311 311 312 313 313 313 312 313 312 313 316 316 317 316 316
302 304 313 309 306 307 315 315 315 315 309 311 317 316 315 315 314 315 315 316 312 311 309 311 311 312 312 313 311 313 310 312 313 313 312 312 311 311 311 311 312 315 315 315 316
302 303 311 314 313 312 314 315 315 316 310 313 315 315 315 315 315 315 316 316 312 312 311 313 311 312 312 312 312 312 311 312 313 311 312 312 312 310 310 312 311 310 314 314 315
302 302 308 313 313 314 314 315 314 310 313 316 314 313 314 315 315 315 315 315 314 312 311 311 311 311 311 311 311 311 311 310 310 308 311 311 311 310 311 312 315 315 317 319 314
303 303 306 310 310 317 315 315 305 310 311 315 313 313 313 313 313 314 315 313 312 312 312 311 311 311 311 313 312 310 310 310 312 313 313 311 311 310 311 311 315 315 315 316 313
304 305 305 308 310 315 316 308 308 308 314 313 313 313 314 312 312 312 314 313 312 311 309 312 313 312 312 311 311 309 310 312 314 312 314 316 318 317 316 316 315 314 314 314 314
306 306 305 306 309 310 315 308 305 311 313 312 311 313 313 312 312 313 311 313 313 311 312 311 312 312 312 312 312 311 311 309 311 313 315 315 314 313 317 315 313 313 314 314 316
304 304 302 303 305 306 310 312 311 308 309 311 311 311 312 310 311 312 313 314 315 315 313 312 312 312 313 313 312 311 311 312 309 317 317 314 315 315 318 317 315 314 315 317 318
302 303 302 304 304 306 304 309 308 307 307 309 310 311 309 305 307 311 313 313 314 316 313 310 310 313 315 313 312 314 313 312 312 311 314 314 315 312 313 315 314 313 317 318 318
298 297 301 302 301 299 300 303 303 306 305 306 305 306 305 304 305 311 314 313 314 315 315 314 309 312 313 312 312 312 313 314 314 315 312 311 316 313 315 313 315 316 317 318 318
297 298 301 303 299 298 300 301 303 302 302 304 304 303 303 303 304 305 310 306 306 311 313 314 310 311 314 312 313 315 311 313 310 310 315 315 317 313 314 314 316 318 319 319 318
298 296 300 300 301 299 298 299 301 299 300 302 301 300 302 302 302 302 302 304 303 305 308 312 311 310 311 312 313 315 315 312 313 311 316 314 316 316 315 314 315 317 319 317 317
298 296 298 296 298 297 297 297 298 298 300 300 300 301 300 300 300 301 302 302 304 304 306 307 307 312 311 313 312 313 315 314 312 314 314 315 313 314 314 313 315 319 319 316 317
297 297 297 297 297 297 297 298 300 299 299 300 299 300 298 299 300 301 301 302 304 304 305 305 306 309 308 306 307 313 314 315 313 314 314 314 314 312 312 315 315 316 317 317 317
297 297 297 297 297 297 296 298 298 297 298 299 298 298 298 299 300 300 302 301 302 302 302 303 304 305 306 305 306 307 310 314 315 314 315 314 314 311 312 312 313 316 316 317 317
Wind_Speed
24 24 22 17 15 14 14 13 9 4 2 1 1 1 1 3 4 5 6 5 5 4 2 5 4 3 4 5 3 2 4 3 6 6 4 7 5 5 4 9 5 4 12 18 20
23 23 23 21 17 15 14 12 10 4 4 3 3 2 3 4 5 7 4 7 5 6 4 2 5 3 4 4 3 4 4 9 6 6 6 8 5 9 5 9 8 20 23 24 22
22 22 22 21 20 17 16 14 10 7 5 5 4 4 4 6 7 0 4 4 8 3 1 2 4 6 4 4 4 4 5 5 4 8 13 12 10 5 15 2 17 28 25 22 18
21 21 21 21 20 20 18 16 11 7 6 5 5 5 5 6 2 1 2 10 6 7 5 5 3 4 3 2 1 2 4 6 9 11 7 8 9 7 10 9 20 24 25 24 19
23 22 20 20 20 20 19 17 11 7 5 5 5 5 6 5 4 4 9 6 6 9 10 7 9 3 4 1 1 1 2 3 6 12 7 10 8 6 12 8 23 23 24 24 20
23 23 22 20 19 19 20 16 10 5 4 4 4 5 6 3 1 9 10 5 2 4 7 8 6 5 4 2 3 2 0 1 5 7 6 8 4 6 12 9 26 25 25 24 25
25 24 23 21 20 19 18 12 7 4 3 3 4 5 9 12 5 6 11 4 3 3 3 5 5 3 1 2 4 1 2 4 3 4 4 8 4 7 10 18 29 27 26 26 25
26 26 24 22 20 18 14 8 7 3 4 4 4 4 7 7 12 11 9 7 3 2 1 2 4 3 1 1 4 3 5 3 2 5 3 13 7 8 17 23 29 29 27 29 28
28 28 26 23 18 14 12 11 7 7 5 4 5 4 7 7 13 12 10 7 3 4 5 4 3 3 3 5 4 6 3 4 5 8 2 6 4 11 16 23 31 31 29 32 31
29 29 28 25 17 11 13 8 9 5 4 6 7 6 6 1 4 12 13 9 5 3 3 1 3 4 4 4 6 6 3 4 4 3 4 4 7 7 8 21 29 33 31 36 34
31 31 29 25 15 8 10 4 7 1 5 8 12 17 16 6 2 6 12 11 8 3 4 3 4 4 6 6 2 1 1 2 3 3 2 6 7 11 13 7 11 20 30 36 39
31 32 30 23 9 5 8 10 12 13 13 21 20 24 24 17 5 4 12 10 5 4 4 5 5 8 4 3 4 3 1 6 6 3 3 4 8 9 5 9 22 26 30 35 40
31 33 30 20 5 5 4 13 15 10 5 11 6 7 6 16 14 12 11 8 3 4 4 6 5 4 4 3 3 3 4 5 7 3 2 4 7 6 7 13 21 27 35 37 42
30 30 26 18 3 7 1 9 11 8 5 7 4 3 2 3 4 25 18 8 2 8 8 5 3 4 3 2 6 4 8 5 4 3 4 1 6 5 6 8 6 27 31 29 34
28 26 21 19 13 8 10 6 7 4 4 2 3 4 5 5 2 4 22 14 8 6 6 7 6 4 4 6 6 7 4 7 3 3 1 1 2 7 3 5 10 12 24 24 30
27 23 16 15 16 11 8 6 3 5 6 6 5 7 3 6 2 3 5 7 4 4 3 6 1 5 7 4 6 8 6 7 4 3 2 7 7 5 4 4 6 6 18 21 27
27 22 8 14 18 11 10 6 4 3 6 5 5 7 4 5 4 4 1 3 6 4 5 4 4 3 4 3 3 5 6 2 3 2 6 0 1 8 6 7 6 14 23 14 23
28 21 4 9 13 10 10 5 3 2 3 3 5 6 1 7 5 8 2 1 3 4 3 5 8 7 5 8 8 7 8 6 6 4 4 1 6 6 3 6 12 11 7 10 21
31 20 3 10 11 9 6 3 5 1 4 6 7 4 3 4 5 6 6 2 3 1 5 5 6 5 5 3 8 4 4 4 6 2 2 5 7 8 2 5 4 5 14 20 27
33 14 12 20 16 8 4 5 2 5 5 2 2 1 3 5 5 6 3 4 6 4 4 4 5 6 6 5 4 5 8 3 2 3 5 4 5 6 5 4 3 5 15 24 24
25 9 13 16 16 1 3 3 3 9 13 5 3 4 2 3 1 2 4 4 6 6 7 5 3 6 1 6 9 3 2 5 4 4 6 2 6 7 9 10 11 12 25 28 27
17 4 17 25 6 4 3 6 10 10 15 5 4 4 2 3 3 4 5 3 10 5 4 4 2 4 9 5 2 6 8 7 5 5 3 3 11 6 8 12 20 23 26 24 23
15 6 11 15 4 4 7 5 4 8 6 7 5 5 3 3 3 2 5 8 21 10 5 6 3 5 9 5 3 3 4 5 4 4 8 6 11 4 4 6 21 24 26 22 19
9 4 8 11 10 4 5 4 7 13 5 4 4 6 4 2 1 5 6 5 22 14 14 6 4 8 9 7 5 7 8 5 7 5 15 7 23 5 6 8 10 25 29 26 19
10 4 4 4 4 8 3 4 9 5 4 10 5 3 5 4 4 7 3 11 4 17 8 4 6 4 11 7 6 14 18 17 10 17 11 22 11 20 11 10 20 31 32 26 22
7 6 5 15 10 7 4 2 4 7 3 3 7 6 9 5 6 15 10 5 6 9 3 2 5 3 15 14 15 14 15 19 22 21 14 20 19 9 16 26 16 24 24 26 28
9 9 6 7 3 3 4 4 6 12 11 11 15 11 12 11 20 23 16 20 19 11 9 9 7 3 21 13 11 9 25 17 18 16 20 16 21 7 8 10 21 31 33 36 36
Wind_Direction
15 17 16 10 4 3 359 356 349 323 286 235 183 183 268 301 273 250 250 234 240 255 200 189 186 185 182 180 160 138 67 161 199 167 182 164 139 166 156 136 119 146 133 133 126
7 8 11 9 2 355 354 351 343 313 273 255 247 261 298 319 293 262 251 259 220 163 143 154 175 190 167 157 176 97 113 204 188 184 181 156 149 142 128 124 109 119 130 134 133
1 1 1 4 1 354 345 337 331 308 270 254 259 265 301 332 317 224 281 206 152 115 15 81 148 161 152 157 178 153 181 186 200 183 159 150 149 147 131 311 162 152 151 153 153
356 355 354 353 355 352 346 336 319 304 268 255 246 262 290 322 199 175 204 143 112 69 78 74 128 123 99 128 53 168 224 182 163 160 154 163 150 127 151 199 187 168 163 160 163
352 350 349 347 346 346 344 337 323 297 263 245 249 261 287 297 268 205 154 134 96 76 73 100 77 96 122 111 31 148 275 206 196 174 169 168 181 181 206 169 179 172 171 169 169
354 349 345 342 340 341 340 335 328 294 266 242 242 259 271 287 222 174 176 172 106 75 65 55 65 71 103 79 99 300 285 20 195 182 154 159 206 180 225 186 186 180 180 182 176
359 355 348 339 335 339 338 334 334 282 275 247 248 258 257 235 209 194 199 200 166 58 54 44 42 23 22 80 355 56 105 7 246 203 225 172 287 222 200 187 176 184 188 188 186
359 357 354 344 332 341 344 335 341 298 268 260 265 273 253 218 223 206 191 200 205 319 305 38 14 60 124 73 27 80 53 137 267 159 239 164 235 249 208 184 190 193 193 192 195
358 355 354 349 332 342 345 332 305 307 280 260 258 266 263 230 222 212 203 202 193 283 224 301 303 68 89 94 18 5 195 184 302 200 128 174 269 245 202 193 197 198 198 198 198
355 352 351 350 337 340 337 329 345 326 274 264 255 289 251 319 243 230 210 216 249 193 176 217 96 71 40 80 212 211 196 222 214 201 169 189 264 284 191 199 207 205 202 202 203
353 349 348 350 347 356 355 346 356 304 308 249 268 263 272 335 316 220 204 207 195 164 155 54 75 214 218 193 158 145 173 255 252 256 216 223 246 252 252 218 200 207 207 209 209
352 347 347 349 354 26 23 59 22 315 300 295 276 260 252 251 301 181 192 180 168 172 120 27 235 227 200 189 200 187 291 285 284 265 167 288 261 251 247 229 232 215 210 213 213
353 349 350 353 3 10 45 20 352 338 282 301 302 281 281 230 228 237 188 193 140 149 177 161 228 111 172 175 174 215 185 224 220 360 15 336 280 237 258 246 240 234 235 230 221
354 355 1 3 15 352 97 350 342 342 37 283 334 346 285 187 234 228 226 193 143 197 160 221 272 155 129 225 157 246 210 178 180 107 236 41 281 286 241 249 256 250 241 237 224
354 357 1 13 360 345 318 336 331 339 343 280 28 27 184 200 330 231 216 208 181 186 123 247 174 176 203 216 164 229 144 154 137 132 86 276 309 261 249 255 252 255 254 250 232
350 354 354 2 5 356 331 316 326 47 251 352 25 351 19 268 330 83 161 189 181 129 341 234 200 179 208 234 171 153 81 55 60 102 312 212 183 272 245 215 303 276 284 283 234
349 348 330 4 3 8 350 321 40 161 331 0 347 335 334 322 354 47 144 149 175 122 244 328 235 250 170 169 49 83 75 345 343 2 232 197 128 251 243 281 255 287 293 269 217
349 349 283 350 1 0 356 47 196 311 342 19 328 311 55 12 354 342 77 243 192 120 146 193 291 179 185 191 184 187 155 157 209 199 254 95 235 250 247 311 305 297 259 197 186
346 356 259 333 337 1 6 73 224 281 340 345 333 351 330 11 5 10 2 233 355 140 194 191 258 285 184 180 141 190 165 200 106 23 63 234 290 304 234 359 25 110 148 156 159
351 354 11 350 339 339 87 224 227 17 322 346 190 298 291 1 18 24 310 17 352 55 299 276 295 239 239 108 50 168 158 78 6 171 229 268 269 235 236 211 141 138 153 157 163
360 353 346 351 341 18 161 222 329 24 15 3 355 304 34 8 303 281 266 62 352 328 4 1 138 285 96 201 178 145 187 52 128 145 184 213 256 217 211 188 188 198 181 185 193
4 353 346 347 28 35 37 333 328 355 17 353 2 40 9 2 270 248 238 29 3 335 20 10 287 251 238 275 242 177 195 158 144 221 227 167 261 201 211 192 189 205 205 208 215
347 311 2 360 65 13 338 327 331 18 356 355 344 27 356 279 313 283 318 17 28 18 40 347 323 336 329 348 15 224 197 151 120 77 198 176 262 196 193 186 208 210 214 215 219
359 355 346 42 56 58 19 310 331 332 302 298 309 342 4 265 279 277 346 323 349 337 330 325 233 204 245 264 312 287 306 247 182 171 241 213 254 203 217 215 218 218 220 219 236
18 43 28 339 347 342 275 271 276 290 297 8 322 61 33 295 325 267 307 319 310 291 267 196 237 234 270 278 303 290 286 270 215 233 208 248 219 252 207 209 225 231 227 231 233
25 1 349 301 312 324 322 264 283 298 294 290 306 324 319 259 255 287 285 236 216 284 289 228 259 273 280 291 280 276 282 262 256 249 251 247 256 253 208 228 227 238 238 235 235
338 320 291 263 207 255 225 269 305 331 302 270 318 311 295 268 268 276 276 275 258 264 266 263 272 248 270 269 287 279 246 256 259 246 235 235 246 170 224 216 229 240 243 249 254